Location: Ash Swamp
(41.5170°N, 74.6157°W)
Time: 16:56:53
(UTC+00:00)

Cosmos 1975 Rocket - Pass Details

Date: 14 July 2020
Orbit: 604 x 633 km, 82.5° (Epoch: 04 August)

Event Time Altitude Azimuth Distance (km) Brightness Sun altitude
Rises 08:25:13 0° 354° (N) 2,908 7.1 -11.6°
Reaches altitude 10° 08:27:27 10° 356° (N) 2,001 6.2 -11.3°
Maximum altitude 08:31:53 72° 81° (E) 661 3.4 -10.7°
Drops below altitude 10° 08:36:19 10° 166° (SSE) 2,001 5.4 -10.1°
Sets 08:38:33 0° 169° (SSE) 2,907 6.2 -9.8°
